Time,TemperatureF,DewpointF,PressureIn,WindDirection,WindDirectionDegrees,WindSpeedMPH,WindSpeedGustMPH,Humidity,HourlyPrecipIn,Conditions,Clouds,dailyrainin,SoftwareType,DateUTC
2013-09-21 00:01:00,62.4,62.4,26.74,ENE,69,0.0,0.0,100,0.00,,,-99.99,VWS V12.07,2013-09-21 04:01:00,
2013-09-21 00:31:00,62.3,62.3,26.73,ENE,64,0.0,0.0,100,0.00,,,-99.99,VWS V12.07,2013-09-21 04:31:00,
2013-09-21 01:01:00,62.3,62.3,26.73,ENE,73,0.0,0.0,100,0.00,,,-99.99,VWS V12.07,2013-09-21 05:01:00,
2013-09-21 01:31:00,62.2,62.2,26.72,ENE,73,0.0,0.0,100,0.00,,,-99.99,VWS V12.07,2013-09-21 05:31:00,
2013-09-21 02:01:00,61.9,61.9,26.72,ENE,73,0.0,0.0,100,0.00,,,-99.99,VWS V12.07,2013-09-21 06:01:00,
2013-09-21 02:31:00,61.4,61.4,26.70,East,85,0.0,0.0,100,0.00,,,-99.99,VWS V12.07,2013-09-21 06:31:00,
2013-09-21 03:01:00,61.4,61.4,26.68,SE,137,0.0,0.0,100,0.00,,,-99.99,VWS V12.07,2013-09-21 07:01:00,
2013-09-21 03:31:00,61.3,61.3,26.68,ESE,112,0.0,0.0,100,0.00,,,-99.99,VWS V12.07,2013-09-21 07:31:00,
2013-09-21 04:01:00,61.4,61.4,26.67,ESE,118,0.0,0.0,100,0.00,,,-99.99,VWS V12.07,2013-09-21 08:01:00,
2013-09-21 04:31:00,61.3,61.3,26.66,ESE,116,0.0,0.0,100,0.00,,,-99.99,VWS V12.07,2013-09-21 08:31:00,
2013-09-21 05:01:00,61.2,61.2,26.65,ESE,117,0.0,0.0,100,0.00,,,-99.99,VWS V12.07,2013-09-21 09:01:00,
2013-09-21 05:31:00,61.0,61.0,26.64,ESE,121,0.0,0.0,100,0.00,,,-99.99,VWS V12.07,2013-09-21 09:31:00,
2013-09-21 06:01:00,61.1,61.1,26.65,SSE,151,0.0,0.0,100,0.00,,,-99.99,VWS V12.07,2013-09-21 10:01:00,
2013-09-21 06:31:00,61.2,61.2,26.64,SSE,156,0.0,0.0,100,0.00,,,-99.99,VWS V12.07,2013-09-21 10:31:00,
2013-09-21 07:01:00,61.4,61.4,26.65,East,90,0.0,0.0,100,0.00,,,-99.99,VWS V12.07,2013-09-21 11:01:00,
2013-09-21 07:31:00,61.4,61.4,26.65,SE,136,0.0,0.0,100,0.00,,,-99.99,VWS V12.07,2013-09-21 11:31:00,
2013-09-21 08:01:00,62.5,62.5,26.65,ESE,119,0.0,0.0,100,0.00,,,-99.99,VWS V12.07,2013-09-21 12:01:00,
2013-09-21 08:31:00,62.4,62.4,26.64,SE,126,0.0,0.0,100,0.00,,,-99.99,VWS V12.07,2013-09-21 12:31:00,
2013-09-21 09:01:00,62.3,62.3,26.64,ESE,111,0.0,0.0,100,0.00,,,-99.99,VWS V12.07,2013-09-21 13:01:00,
2013-09-21 09:31:00,62.5,62.5,26.63,SE,145,0.0,0.0,100,0.01,,,-99.99,VWS V12.07,2013-09-21 13:31:00,
2013-09-21 10:01:00,62.5,62.5,26.63,East,94,0.0,0.0,100,0.03,,,-99.99,VWS V12.07,2013-09-21 14:01:00,
2013-09-21 10:31:00,62.3,62.3,26.61,SE,139,0.0,0.0,100,0.03,,,-99.99,VWS V12.07,2013-09-21 14:31:00,
2013-09-21 11:01:00,62.3,62.3,26.61,SE,130,0.0,0.0,100,0.03,,,-99.99,VWS V12.07,2013-09-21 15:01:00,
2013-09-21 11:31:00,62.5,62.5,26.60,SSE,155,0.0,0.0,100,0.04,,,-99.99,VWS V12.07,2013-09-21 15:31:00,
2013-09-21 12:01:00,62.5,62.5,26.59,SSE,153,0.0,0.0,100,0.06,,,-99.99,VWS V12.07,2013-09-21 16:01:00,
2013-09-21 12:31:00,62.6,62.6,26.58,SSE,161,0.0,0.0,100,0.06,,,-99.99,VWS V12.07,2013-09-21 16:31:00,
2013-09-21 13:01:00,62.5,62.5,26.56,ENE,78,0.0,0.0,100,0.03,,,-99.99,VWS V12.07,2013-09-21 17:01:00,
2013-09-21 13:31:00,62.3,62.3,26.55,SSE,153,0.0,0.0,100,0.05,,,-99.99,VWS V12.07,2013-09-21 17:31:00,
2013-09-21 14:01:00,62.5,62.5,26.54,SSE,161,0.0,0.0,100,0.08,,,-99.99,VWS V12.07,2013-09-21 18:01:00,
2013-09-21 14:31:00,61.6,61.6,26.55,SSW,195,0.0,0.0,100,0.18,,,-99.99,VWS V12.07,2013-09-21 18:31:00,
2013-09-21 15:01:00,60.2,60.2,26.54,SSW,201,0.0,0.0,100,0.17,,,-99.99,VWS V12.07,2013-09-21 19:01:00,
2013-09-21 15:31:00,59.5,59.5,26.54,SW,219,0.0,0.0,100,0.06,,,-99.99,VWS V12.07,2013-09-21 19:31:00,
2013-09-21 16:01:00,58.9,58.9,26.54,SSW,212,0.0,0.0,100,0.08,,,-99.99,VWS V12.07,2013-09-21 20:01:00,
2013-09-21 16:31:00,58.9,58.9,26.53,SW,233,0.0,0.0,100,0.06,,,-99.99,VWS V12.07,2013-09-21 20:31:00,
2013-09-21 17:01:00,58.4,58.4,26.53,SW,214,0.0,0.0,100,0.03,,,-99.99,VWS V12.07,2013-09-21 21:01:00,
2013-09-21 17:31:00,58.2,58.2,26.54,SW,214,0.0,0.0,100,0.04,,,-99.99,VWS V12.07,2013-09-21 21:31:00,
2013-09-21 18:01:00,58.2,58.2,26.55,SW,214,0.0,0.0,100,0.02,,,-99.99,VWS V12.07,2013-09-21 22:01:00,
2013-09-21 18:31:00,58.0,58.0,26.56,SW,214,0.0,0.0,100,0.00,,,-99.99,VWS V12.07,2013-09-21 22:31:00,
2013-09-21 19:01:00,57.8,57.8,26.56,SW,214,0.0,0.0,100,0.00,,,-99.99,VWS V12.07,2013-09-21 23:01:00,
2013-09-21 19:31:00,57.7,57.7,26.56,SW,214,0.0,0.0,100,0.00,,,-99.99,VWS V12.07,2013-09-21 23:31:00,
2013-09-21 20:01:00,57.0,57.0,26.57,WNW,282,0.0,0.0,100,0.00,,,-99.99,VWS V12.07,2013-09-22 00:01:00,
2013-09-21 20:31:00,57.0,57.0,26.56,West,272,0.0,0.0,100,0.00,,,-99.99,VWS V12.07,2013-09-22 00:31:00,
2013-09-21 21:01:00,56.0,56.0,26.56,SW,218,0.0,0.0,100,0.00,,,-99.99,VWS V12.07,2013-09-22 01:01:00,
2013-09-21 21:31:00,55.8,55.8,26.56,WNW,285,0.0,0.0,100,0.00,,,-99.99,VWS V12.07,2013-09-22 01:31:00,
2013-09-21 22:01:00,55.5,55.5,26.56,WSW,237,0.0,0.0,100,0.00,,,-99.99,VWS V12.07,2013-09-22 02:01:00,
2013-09-21 22:31:00,55.2,55.2,26.57,WNW,286,0.0,0.0,100,0.00,,,-99.99,VWS V12.07,2013-09-22 02:31:00,
2013-09-21 23:01:00,54.1,54.1,26.56,SW,220,0.0,0.0,100,0.00,,,-99.99,VWS V12.07,2013-09-22 03:01:00,
2013-09-21 23:31:00,53.9,53.9,26.56,West,278,0.0,0.0,100,0.00,,,-99.99,VWS V12.07,2013-09-22 03:31:00,